Location: Les Salelles
(44.4192°N, 4.1044°E)
Time: 16:34:07
(UTC+00:00)

CSL-04 Rocket - Pass Details

Date: 20 January 2021
Orbit: 806 x 860 km, 98.9° (Epoch: 25 February)

Event Time Altitude Azimuth Distance (km) Brightness Sun altitude
Rises 18:30:40 0° 156° (SSE) 3,345 6.7 -20.1°
Reaches altitude 10° 18:33:00 10° 153° (SSE) 2,424 5.9 -20.5°
Maximum altitude 18:38:20 68° 72° (ENE) 903 3.6 -21.4°
Drops below altitude 10° 18:43:46 10° 351° (N) 2,476 6.2 -22.4°
Sets 18:46:10 0° 349° (NNW) 3,422 6.9 -22.8°
